This is the latest recevied weather packets stored in our database for station/object KE8GJZ-1. If no packets are shown the sender has not sent any weather packets the latest 10 day(s).
| Time | Temp. | Humidity | Pressure | Rain* | Wind** | Luminosity | Snow |
|---|---|---|---|---|---|---|---|
| 1777817816 | 14.44° C | 39% | 1011.7 hPa | 0 mm | - | 521 W/m² | - |
| 1777816604 | 13.89° C | 41% | 1011.6 hPa | 0 mm | - | 441 W/m² | - |
| 1777815393 | 12.78° C | 43% | 1011.9 hPa | 0 mm | - | 383 W/m² | - |
| 1777815090 | 12.22° C | 43% | 1011.8 hPa | 0 mm | - | 363 W/m² | - |
| 1777814786 | 12.22° C | 44% | 1011.9 hPa | 0 mm | - | 356 W/m² | - |
| 1777814483 | 11.67° C | 46% | 1011.8 hPa | 0 mm | - | 213 W/m² | - |
| 1777814180 | 11.11° C | 46% | 1012 hPa | 0 mm | - | 296 W/m² | - |
| 1777813877 | 10.56° C | 47% | 1011.9 hPa | 0 mm | - | 184 W/m² | - |
| 1777813575 | 10° C | 48% | 1011.9 hPa | 0 mm | - | 67 W/m² | - |
| 1777812667 | 9.44° C | 51% | 1012.1 hPa | 0 mm | - | 67 W/m² | - |
| 1777811760 | 8.33° C | 53% | 1011.9 hPa | 0 mm | - | 53 W/m² | - |
| 1777811152 | 7.78° C | 54% | 1011.9 hPa | 0 mm | - | 45 W/m² | - |
| 1777810243 | 7.22° C | 56% | 1012 hPa | 0 mm | - | 35 W/m² | - |
| 1777809939 | 6.67° C | 57% | 1011.9 hPa | 0 mm | - | 34 W/m² | - |
| 1777809032 | 5.56° C | 59% | 1012.1 hPa | 0 mm | - | 31 W/m² | - |
| 1777808426 | 5.56° C | 60% | 1012.1 hPa | 0 mm | - | 28 W/m² | - |
| 1777807822 | 5° C | 63% | 1012 hPa | 0 mm | - | 23 W/m² | - |
| 1777806609 | 4.44° C | 63% | 1011.8 hPa | 0 mm | - | 17 W/m² | - |
| 1777806002 | 3.89° C | 63% | 1011.8 hPa | 0 mm | - | 11 W/m² | - |
| 1777802973 | 3.89° C | 62% | 1012.1 hPa | 0 mm | - | 0 W/m² | - |
| 1777801764 | 3.33° C | 63% | 1012.2 hPa | 0 mm | - | 0 W/m² | - |
| 1777801157 | 3.33° C | 62% | 1012.2 hPa | 0 mm | - | 0 W/m² | - |
| 1777800854 | 2.78° C | 65% | 1012.1 hPa | 0 mm | - | 0 W/m² | - |
| 1777800549 | 2.22° C | 69% | 1012.3 hPa | 0 mm | - | 0 W/m² | - |
| 1777800246 | 2.22° C | 69% | 1012.3 hPa | 0 mm | - | 0 W/m² | - |
* Rain latest hour (hover to see other rain measurements)
** Current wind speed in m/s (hover to see current wind gust speed)